(°C)
(°C)
-5°
-5°
-5°
-5°
-5°
-6°
-6°
S
S
SSO
SSO
SSO
SSO
SSO
(km/h)
16-40
16-40
16-41
16-42
16-42
16-41
16-40
(mm)
1
1
0
0
0
0
0
(%)
70
55
48
48
48
42
41

Elevação do sol

/ -53.2°
sun-icon
UV 0
07:56
15:50
Lua cheia (187°)
15:44
08:53

METAR para 55.61°N 49.28°L (UWKD)

Hora Condições Temperatura/
Ponto de condensação
Vento Visibilidade Tempo Nuvens Pressão Mudança Bruto
IFR 0°C / -2°C 200º 14kt 6000m Light Snow blowing Snow 1.00mm precipitation Vertical Visibility of 0ft. 1006 Temporary: Overcast 500ft. RMK QFE744/0993 . Runway 11: Frost, 51-100% contamination with <1mm, friction coefficient 0.34. UWKD 181930Z 20007MPS 6000 -SN BLSN BKN008 M00/M02 Q1006 R11/390034 TEMPO OVC005 RMK QFE744/0993
IFR 0°C / -2°C 200º 14kt 2200m Light Snow blowing Snow 1.00mm precipitation Vertical Visibility of 0ft. 1006 Temporary: Overcast 500ft. RMK QFE744/0992 . Runway 11: Frost, 51-100% contamination with <1mm, friction coefficient 0.34. UWKD 181900Z 20007MPS 2200 -SN BLSN BKN007 M00/M02 Q1006 R11/390034 TEMPO OVC005 RMK QFE744/0992
MVFR 0°C / -2°C 200º 12kt 6000m Light Snow blowing Snow 1.00mm precipitation Vertical Visibility of 0ft. 1005 Temporary: Overcast 500ft. RMK QFE744/0992 . Runway 11: Frost, 51-100% contamination with <1mm, friction coefficient 0.34. UWKD 181830Z 20006MPS 6000 -SN BLSN BKN010 M00/M02 Q1005 R11/390034 TEMPO OVC005 RMK QFE744/0992
MVFR -1°C / -2°C 200º 12kt 6000m Light Snow blowing Snow 1.00mm precipitation Vertical Visibility of 0ft. 1005 Temporary: Overcast 500ft. RMK QFE744/0992 . Runway 11: Frost, 51-100% contamination with <1mm, friction coefficient 0.34. UWKD 181800Z 20006MPS 6000 -SN BLSN BKN011 M01/M02 Q1005 R11/390034 TEMPO OVC005 RMK QFE744/0992
IFR -1°C / -2°C 200º 12kt 3400m Light Snow blowing Snow 1.00mm precipitation Vertical Visibility of 0ft. 1005 Temporary: Overcast 500ft. RMK QFE744/0992 . Runway 11: Frost, 51-100% contamination with <1mm, friction coefficient 0.34. UWKD 181730Z 20006MPS 3400 -SN BLSN BKN007 M01/M02 Q1005 R11/390034 TEMPO OVC005 RMK QFE744/0992
IFR -1°C / -2°C 190º 12kt 3800m Light Snow blowing Snow 1.00mm precipitation Vertical Visibility of 0ft. 1005 Temporary: Overcast 500ft. RMK QFE744/0992 . Runway 11: Dry snow, 26-50% contamination with 3mm, friction coefficient 0.35. UWKD 181700Z 19006MPS 3800 -SN BLSN BKN007 M01/M02 Q1005 R11/450335 TEMPO OVC005 RMK QFE744/0992
IFR -1°C / -2°C 190º 10kt 4800m Light Snow 1.00mm precipitation Vertical Visibility of 0ft. 1005 Temporary: Overcast 500ft. RMK QFE743/0991 . Runway 11: Dry snow, 26-50% contamination with 3mm, friction coefficient 0.35. UWKD 181630Z 19005MPS 4800 -SN BKN007 M01/M02 Q1005 R11/450335 TEMPO OVC005 RMK QFE743/0991
IFR -1°C / -3°C 190º 14kt 4300m Light Snow blowing Snow 1.00mm precipitation Vertical Visibility of 0ft. 1004 Temporary: Overcast 500ft. RMK QFE743/0991 . Runway 11: Dry snow, 11-25% contamination with 5mm, friction coefficient 0.37. UWKD 181600Z 19007MPS 4300 -SN BLSN BKN010 M01/M03 Q1004 R11/420537 TEMPO OVC005 RMK QFE743/0991
MVFR -1°C / -3°C 190º 12kt 8000m Light Snow 1.00mm precipitation Vertical Visibility of 0ft. 1004 Temporary: Overcast 500ft. RMK QFE743/0991 . Runway 11: Dry snow, 11-25% contamination with 5mm, friction coefficient 0.37. UWKD 181530Z 19006MPS 8000 -SN BKN013 M01/M03 Q1004 R11/420537 TEMPO OVC005 RMK QFE743/0991
IFR -1°C / -3°C 190º 14kt 6000m Light Snow low Drifting Snow 1.00mm precipitation Vertical Visibility of 0ft. 1004 Temporary: Overcast 500ft. RMK QFE743/0991 . Runway 11: Dry snow, 11-25% contamination with 5mm, friction coefficient 0.37. UWKD 181500Z 19007MPS 6000 -SN DRSN BKN007 M01/M03 Q1004 R11/420537 TEMPO OVC005 RMK QFE743/0991
IFR -2°C / -3°C 190º 10kt 4500m Light Snow 1.00mm precipitation Vertical Visibility of 0ft. 1004 Temporary: Overcast 500ft. RMK QFE743/0990 . Runway 11: Dry snow, 11-25% contamination with 5mm, friction coefficient 0.37. UWKD 181430Z 19005MPS 4500 -SN BKN008 M02/M03 Q1004 R11/420537 TEMPO OVC005 RMK QFE743/0990
IFR -2°C / -3°C 190º 14kt 9000m Light Snow 1.00mm precipitation Vertical Visibility of 0ft. 1003 Temporary: Overcast 500ft. RMK QFE742/0990 . Runway 11: Dry snow, 11-25% contamination with 5mm, friction coefficient 0.37. UWKD 181400Z 19007MPS 9000 -SN BKN009 M02/M03 Q1003 R11/420537 TEMPO OVC005 RMK QFE742/0990
MVFR -2°C / -3°C 190º 12kt 6000m Light Snow 1.00mm precipitation Vertical Visibility of 0ft. 1003 Temporary: Overcast 500ft. RMK QFE742/0990 . Runway 11: Dry snow, 11-25% contamination with 5mm, friction coefficient 0.37. UWKD 181330Z 19006MPS 6000 -SN BKN010 M02/M03 Q1003 R11/420537 TEMPO OVC005 RMK QFE742/0990
IFR -2°C / -3°C 180º 14kt 3100m Light Snow blowing Snow 1.00mm precipitation Vertical Visibility of 0ft. 1003 Temporary: Visibility 2000. Snow . blowing Snow . Overcast 400ft. RMK QFE742/0989 . Runway 11: Dry snow, 11-25% contamination with 5mm, friction coefficient 0.37. UWKD 181300Z 18007MPS 3100 -SN BLSN BKN007 M02/M03 Q1003 R11/420537 TEMPO 2000 SN BLSN OVC004 RMK QFE742/0989
IFR -2°C / -3°C 180º 14kt 4400m Light Snow blowing Snow 1.00mm precipitation Vertical Visibility of 0ft. 1002 No Significant change. Runway 11: Dry snow, 11-25% contamination with 5mm, friction coefficient 0.37. UWKD 181230Z 18007MPS 4400 -SN BLSN BKN007 M02/M03 Q1002 R11/420537 NOSIG RMK QFE742/0989
IFR -2°C / -3°C 180º 14kt 7000m Light Snow low Drifting Snow 1.00mm precipitation Vertical Visibility of 0ft. 1002 No Significant change. Runway 11: Dry snow, 11-25% contamination with 5mm, friction coefficient 0.37. UWKD 181200Z 18007MPS 7000 -SN DRSN BKN008 M02/M03 Q1002 R11/420537 NOSIG RMK QFE742/0989
IFR -2°C / -3°C 190º 14kt 6000m Light Snow low Drifting Snow 1.00mm precipitation Vertical Visibility of 0ft. 1002 No Significant change. Runway 11: Dry snow, 11-25% contamination with 5mm, friction coefficient 0.37. UWKD 181130Z 19007MPS 6000 -SN DRSN BKN009 M02/M03 Q1002 R11/420537 NOSIG RMK QFE742/0989
IFR -2°C / -3°C 190º 14kt 6000m Light Snow low Drifting Snow 1.00mm precipitation Vertical Visibility of 0ft. 1002 No Significant change. Runway 11: Dry snow, 26-50% contamination with 5mm, friction coefficient 0.32. UWKD 181100Z 19007MPS 6000 -SN DRSN BKN009 M02/M03 Q1002 R11/450532 NOSIG RMK QFE741/0989
IFR -2°C / -3°C 190º 14kt 7000m Light Snow low Drifting Snow 1.00mm precipitation Vertical Visibility of 0ft. 1001 No Significant change. Runway 11: Dry snow, 26-50% contamination with 5mm, friction coefficient 0.32. UWKD 181030Z 19007MPS 7000 -SN DRSN BKN007 M02/M03 Q1001 R11/450532 NOSIG RMK QFE741/0988
IFR -2°C / -3°C 190º 12kt 6000m Light Snow low Drifting Snow 1.00mm precipitation Vertical Visibility of 0ft. 1001 No Significant change. Runway 11: Dry snow, 11-25% contamination with 5mm, friction coefficient 0.35. UWKD 181000Z 19006MPS 6000 -SN DRSN BKN008 M02/M03 Q1001 R11/420535 NOSIG RMK QFE741/0988
IFR -2°C / -4°C 180º 14kt 2800m Light Snow blowing Snow 1.00mm precipitation Vertical Visibility of 0ft. 1001 Temporary: Visibility 2000. Snow . blowing Snow . RMK QFE741/0988 . Runway 11: Dry snow, 11-25% contamination with 5mm, friction coefficient 0.35. UWKD 180930Z 18007MPS 2800 -SN BLSN BKN007 M02/M04 Q1001 R11/420535 TEMPO 2000 SN BLSN RMK QFE741/0988
IFR -2°C / -4°C 180º 14kt 4100m Light Snow blowing Snow 1.00mm precipitation Vertical Visibility of 0ft. 1001 Temporary: Visibility 2000. Snow . blowing Snow . RMK QFE741/0988 . Runway 11: Dry snow, 11-25% contamination with 5mm, friction coefficient 0.35. UWKD 180900Z 18007MPS 4100 -SN BLSN BKN007 M02/M04 Q1001 R11/420535 TEMPO 2000 SN BLSN RMK QFE741/0988
IFR -2°C / -4°C 180º 14kt 4000m Light Snow blowing Snow 1.00mm precipitation Vertical Visibility of 0ft. 1001 Temporary: Visibility 2000. Snow . blowing Snow . RMK QFE741/0988 . Runway 11: Dry snow, 11-25% contamination with 5mm, friction coefficient 0.35. UWKD 180830Z 18007MPS 4000 -SN BLSN BKN007 M02/M04 Q1001 R11/420535 TEMPO 2000 SN BLSN RMK QFE741/0988
IFR -3°C / -4°C 180º 14kt 4600m Light Snow blowing Snow 1.00mm precipitation Vertical Visibility of 0ft. 1001 No Significant change. Runway 11: Dry snow, 11-25% contamination with 5mm, friction coefficient 0.35. UWKD 180800Z 18007MPS 4600 -SN BLSN BKN008 M03/M04 Q1001 R11/420535 NOSIG RMK QFE741/0988

IFR

0°C / -2°C

[Mais]
Vento 200º 14kt
Visibilidade 6000m
Tempo Light Snow blowing Snow 1.00mm precipitation
Nuvens Vertical Visibility of 0ft.
Pressão 1006
Mudança Temporary: Overcast 500ft. RMK QFE744/0993 . Runway 11: Frost, 51-100% contamination with <1mm, friction coefficient 0.34.
Bruto UWKD 181930Z 20007MPS 6000 -SN BLSN BKN008 M00/M02 Q1006 R11/390034 TEMPO OVC005 RMK QFE744/0993

IFR

0°C / -2°C

[Mais]
Vento 200º 14kt
Visibilidade 2200m
Tempo Light Snow blowing Snow 1.00mm precipitation
Nuvens Vertical Visibility of 0ft.
Pressão 1006
Mudança Temporary: Overcast 500ft. RMK QFE744/0992 . Runway 11: Frost, 51-100% contamination with <1mm, friction coefficient 0.34.
Bruto UWKD 181900Z 20007MPS 2200 -SN BLSN BKN007 M00/M02 Q1006 R11/390034 TEMPO OVC005 RMK QFE744/0992

MVFR

0°C / -2°C

[Mais]
Vento 200º 12kt
Visibilidade 6000m
Tempo Light Snow blowing Snow 1.00mm precipitation
Nuvens Vertical Visibility of 0ft.
Pressão 1005
Mudança Temporary: Overcast 500ft. RMK QFE744/0992 . Runway 11: Frost, 51-100% contamination with <1mm, friction coefficient 0.34.
Bruto UWKD 181830Z 20006MPS 6000 -SN BLSN BKN010 M00/M02 Q1005 R11/390034 TEMPO OVC005 RMK QFE744/0992

MVFR

-1°C / -2°C

[Mais]
Vento 200º 12kt
Visibilidade 6000m
Tempo Light Snow blowing Snow 1.00mm precipitation
Nuvens Vertical Visibility of 0ft.
Pressão 1005
Mudança Temporary: Overcast 500ft. RMK QFE744/0992 . Runway 11: Frost, 51-100% contamination with <1mm, friction coefficient 0.34.
Bruto UWKD 181800Z 20006MPS 6000 -SN BLSN BKN011 M01/M02 Q1005 R11/390034 TEMPO OVC005 RMK QFE744/0992

IFR

-1°C / -2°C

[Mais]
Vento 200º 12kt
Visibilidade 3400m
Tempo Light Snow blowing Snow 1.00mm precipitation
Nuvens Vertical Visibility of 0ft.
Pressão 1005
Mudança Temporary: Overcast 500ft. RMK QFE744/0992 . Runway 11: Frost, 51-100% contamination with <1mm, friction coefficient 0.34.
Bruto UWKD 181730Z 20006MPS 3400 -SN BLSN BKN007 M01/M02 Q1005 R11/390034 TEMPO OVC005 RMK QFE744/0992

IFR

-1°C / -2°C

[Mais]
Vento 190º 12kt
Visibilidade 3800m
Tempo Light Snow blowing Snow 1.00mm precipitation
Nuvens Vertical Visibility of 0ft.
Pressão 1005
Mudança Temporary: Overcast 500ft. RMK QFE744/0992 . Runway 11: Dry snow, 26-50% contamination with 3mm, friction coefficient 0.35.
Bruto UWKD 181700Z 19006MPS 3800 -SN BLSN BKN007 M01/M02 Q1005 R11/450335 TEMPO OVC005 RMK QFE744/0992

IFR

-1°C / -2°C

[Mais]
Vento 190º 10kt
Visibilidade 4800m
Tempo Light Snow 1.00mm precipitation
Nuvens Vertical Visibility of 0ft.
Pressão 1005
Mudança Temporary: Overcast 500ft. RMK QFE743/0991 . Runway 11: Dry snow, 26-50% contamination with 3mm, friction coefficient 0.35.
Bruto UWKD 181630Z 19005MPS 4800 -SN BKN007 M01/M02 Q1005 R11/450335 TEMPO OVC005 RMK QFE743/0991

IFR

-1°C / -3°C

[Mais]
Vento 190º 14kt
Visibilidade 4300m
Tempo Light Snow blowing Snow 1.00mm precipitation
Nuvens Vertical Visibility of 0ft.
Pressão 1004
Mudança Temporary: Overcast 500ft. RMK QFE743/0991 . Runway 11: Dry snow, 11-25% contamination with 5mm, friction coefficient 0.37.
Bruto UWKD 181600Z 19007MPS 4300 -SN BLSN BKN010 M01/M03 Q1004 R11/420537 TEMPO OVC005 RMK QFE743/0991

MVFR

-1°C / -3°C

[Mais]
Vento 190º 12kt
Visibilidade 8000m
Tempo Light Snow 1.00mm precipitation
Nuvens Vertical Visibility of 0ft.
Pressão 1004
Mudança Temporary: Overcast 500ft. RMK QFE743/0991 . Runway 11: Dry snow, 11-25% contamination with 5mm, friction coefficient 0.37.
Bruto UWKD 181530Z 19006MPS 8000 -SN BKN013 M01/M03 Q1004 R11/420537 TEMPO OVC005 RMK QFE743/0991

IFR

-1°C / -3°C

[Mais]
Vento 190º 14kt
Visibilidade 6000m
Tempo Light Snow low Drifting Snow 1.00mm precipitation
Nuvens Vertical Visibility of 0ft.
Pressão 1004
Mudança Temporary: Overcast 500ft. RMK QFE743/0991 . Runway 11: Dry snow, 11-25% contamination with 5mm, friction coefficient 0.37.
Bruto UWKD 181500Z 19007MPS 6000 -SN DRSN BKN007 M01/M03 Q1004 R11/420537 TEMPO OVC005 RMK QFE743/0991

IFR

-2°C / -3°C

[Mais]
Vento 190º 10kt
Visibilidade 4500m
Tempo Light Snow 1.00mm precipitation
Nuvens Vertical Visibility of 0ft.
Pressão 1004
Mudança Temporary: Overcast 500ft. RMK QFE743/0990 . Runway 11: Dry snow, 11-25% contamination with 5mm, friction coefficient 0.37.
Bruto UWKD 181430Z 19005MPS 4500 -SN BKN008 M02/M03 Q1004 R11/420537 TEMPO OVC005 RMK QFE743/0990

IFR

-2°C / -3°C

[Mais]
Vento 190º 14kt
Visibilidade 9000m
Tempo Light Snow 1.00mm precipitation
Nuvens Vertical Visibility of 0ft.
Pressão 1003
Mudança Temporary: Overcast 500ft. RMK QFE742/0990 . Runway 11: Dry snow, 11-25% contamination with 5mm, friction coefficient 0.37.
Bruto UWKD 181400Z 19007MPS 9000 -SN BKN009 M02/M03 Q1003 R11/420537 TEMPO OVC005 RMK QFE742/0990

MVFR

-2°C / -3°C

[Mais]
Vento 190º 12kt
Visibilidade 6000m
Tempo Light Snow 1.00mm precipitation
Nuvens Vertical Visibility of 0ft.
Pressão 1003
Mudança Temporary: Overcast 500ft. RMK QFE742/0990 . Runway 11: Dry snow, 11-25% contamination with 5mm, friction coefficient 0.37.
Bruto UWKD 181330Z 19006MPS 6000 -SN BKN010 M02/M03 Q1003 R11/420537 TEMPO OVC005 RMK QFE742/0990

IFR

-2°C / -3°C

[Mais]
Vento 180º 14kt
Visibilidade 3100m
Tempo Light Snow blowing Snow 1.00mm precipitation
Nuvens Vertical Visibility of 0ft.
Pressão 1003
Mudança Temporary: Visibility 2000. Snow . blowing Snow . Overcast 400ft. RMK QFE742/0989 . Runway 11: Dry snow, 11-25% contamination with 5mm, friction coefficient 0.37.
Bruto UWKD 181300Z 18007MPS 3100 -SN BLSN BKN007 M02/M03 Q1003 R11/420537 TEMPO 2000 SN BLSN OVC004 RMK QFE742/0989

IFR

-2°C / -3°C

[Mais]
Vento 180º 14kt
Visibilidade 4400m
Tempo Light Snow blowing Snow 1.00mm precipitation
Nuvens Vertical Visibility of 0ft.
Pressão 1002
Mudança No Significant change. Runway 11: Dry snow, 11-25% contamination with 5mm, friction coefficient 0.37.
Bruto UWKD 181230Z 18007MPS 4400 -SN BLSN BKN007 M02/M03 Q1002 R11/420537 NOSIG RMK QFE742/0989

IFR

-2°C / -3°C

[Mais]
Vento 180º 14kt
Visibilidade 7000m
Tempo Light Snow low Drifting Snow 1.00mm precipitation
Nuvens Vertical Visibility of 0ft.
Pressão 1002
Mudança No Significant change. Runway 11: Dry snow, 11-25% contamination with 5mm, friction coefficient 0.37.
Bruto UWKD 181200Z 18007MPS 7000 -SN DRSN BKN008 M02/M03 Q1002 R11/420537 NOSIG RMK QFE742/0989

IFR

-2°C / -3°C

[Mais]
Vento 190º 14kt
Visibilidade 6000m
Tempo Light Snow low Drifting Snow 1.00mm precipitation
Nuvens Vertical Visibility of 0ft.
Pressão 1002
Mudança No Significant change. Runway 11: Dry snow, 11-25% contamination with 5mm, friction coefficient 0.37.
Bruto UWKD 181130Z 19007MPS 6000 -SN DRSN BKN009 M02/M03 Q1002 R11/420537 NOSIG RMK QFE742/0989

IFR

-2°C / -3°C

[Mais]
Vento 190º 14kt
Visibilidade 6000m
Tempo Light Snow low Drifting Snow 1.00mm precipitation
Nuvens Vertical Visibility of 0ft.
Pressão 1002
Mudança No Significant change. Runway 11: Dry snow, 26-50% contamination with 5mm, friction coefficient 0.32.
Bruto UWKD 181100Z 19007MPS 6000 -SN DRSN BKN009 M02/M03 Q1002 R11/450532 NOSIG RMK QFE741/0989

IFR

-2°C / -3°C

[Mais]
Vento 190º 14kt
Visibilidade 7000m
Tempo Light Snow low Drifting Snow 1.00mm precipitation
Nuvens Vertical Visibility of 0ft.
Pressão 1001
Mudança No Significant change. Runway 11: Dry snow, 26-50% contamination with 5mm, friction coefficient 0.32.
Bruto UWKD 181030Z 19007MPS 7000 -SN DRSN BKN007 M02/M03 Q1001 R11/450532 NOSIG RMK QFE741/0988

IFR

-2°C / -3°C

[Mais]
Vento 190º 12kt
Visibilidade 6000m
Tempo Light Snow low Drifting Snow 1.00mm precipitation
Nuvens Vertical Visibility of 0ft.
Pressão 1001
Mudança No Significant change. Runway 11: Dry snow, 11-25% contamination with 5mm, friction coefficient 0.35.
Bruto UWKD 181000Z 19006MPS 6000 -SN DRSN BKN008 M02/M03 Q1001 R11/420535 NOSIG RMK QFE741/0988

IFR

-2°C / -4°C

[Mais]
Vento 180º 14kt
Visibilidade 2800m
Tempo Light Snow blowing Snow 1.00mm precipitation
Nuvens Vertical Visibility of 0ft.
Pressão 1001
Mudança Temporary: Visibility 2000. Snow . blowing Snow . RMK QFE741/0988 . Runway 11: Dry snow, 11-25% contamination with 5mm, friction coefficient 0.35.
Bruto UWKD 180930Z 18007MPS 2800 -SN BLSN BKN007 M02/M04 Q1001 R11/420535 TEMPO 2000 SN BLSN RMK QFE741/0988

IFR

-2°C / -4°C

[Mais]
Vento 180º 14kt
Visibilidade 4100m
Tempo Light Snow blowing Snow 1.00mm precipitation
Nuvens Vertical Visibility of 0ft.
Pressão 1001
Mudança Temporary: Visibility 2000. Snow . blowing Snow . RMK QFE741/0988 . Runway 11: Dry snow, 11-25% contamination with 5mm, friction coefficient 0.35.
Bruto UWKD 180900Z 18007MPS 4100 -SN BLSN BKN007 M02/M04 Q1001 R11/420535 TEMPO 2000 SN BLSN RMK QFE741/0988

IFR

-2°C / -4°C

[Mais]
Vento 180º 14kt
Visibilidade 4000m
Tempo Light Snow blowing Snow 1.00mm precipitation
Nuvens Vertical Visibility of 0ft.
Pressão 1001
Mudança Temporary: Visibility 2000. Snow . blowing Snow . RMK QFE741/0988 . Runway 11: Dry snow, 11-25% contamination with 5mm, friction coefficient 0.35.
Bruto UWKD 180830Z 18007MPS 4000 -SN BLSN BKN007 M02/M04 Q1001 R11/420535 TEMPO 2000 SN BLSN RMK QFE741/0988

IFR

-3°C / -4°C

[Mais]
Vento 180º 14kt
Visibilidade 4600m
Tempo Light Snow blowing Snow 1.00mm precipitation
Nuvens Vertical Visibility of 0ft.
Pressão 1001
Mudança No Significant change. Runway 11: Dry snow, 11-25% contamination with 5mm, friction coefficient 0.35.
Bruto UWKD 180800Z 18007MPS 4600 -SN BLSN BKN008 M03/M04 Q1001 R11/420535 NOSIG RMK QFE741/0988

TAF para 55.61°N 49.28°L (UWKD)

From till


Maximum Temperature -1ºC on . Minimum Temperature -6ºC on .
From till Wind 190º 10kt. Gust 19kt. Visibility 6000m. Light Snow . Overcast 1100ft.
Temporarly from till Visibility 2100m. Light Snow . Broken Clouds 500ft.
Temporarly from till Visibility 997.791m. Showers Snow . Broken Clouds 500ft. Broken Clouds 1100ft.
Becoming from till Wind 320º 12kt. Visibility 6000m. Light Snow . Overcast 1100ft.

Bruto: TAF UWKD 181700Z 1818/1918 19005G10MPS 6000 -SN OVC011 TXM01/1818Z TNM06/1918Z TEMPO 1818/1903 2100 -SN BKN005 TEMPO 1903/1915 1000 SHSN BKN005 BKN011CB BECMG 1909/1911 32006MPS

Radar e precipitação nowcast para 55.61°N 49.28°L

Chuvisco
Leve
Moderado
Forte
Muito forte
Granizo

O marcador do lugar é colocado em 55.61°N 49.28°L. Esta animação mostra o radar de precipitação para a última hora, assim como a 1h previsão. A queda de neve pode ser invisível para o radar. A intensidade da precipitação é codificada por cores, variando do azul claro ao laranja.

Imagens atuais de satélite e precipitação para 55.61°N 49.28°L

O marcador de lugar é colocado em 55.61°N 49.28°L. [Mais]

A imagem de satélite em tempo real combina luz visível durante o dia com radiação infravermelha durante a noite. À noite, a imagem não é escura, pois a radiação infravermelha pode detectar diferenças de temperatura. Infelizmente, nuvens baixas e neblina são difíceis de distinguir das temperaturas do solo e, portanto, podem ser quase invisíveis durante a noite. As imagens de satélite Meteosat para a Europa são atualizadas em tempo real a cada 5 minutos. GOES-16/GOES-17 ( América do Norte e do Sul) e Himawari (Ásia) são atualizadas a cada 10 minutos.

Copyright 2022 EUMETSAT / meteoblue. / Copyright 2022 meteoblue